EW6055 Weather Reports


Display with metric or nautical units.
time (UTC)temp
F
wind
direction
speed
MPH
gust
MPH
rain 1hr
in
rain 24hr
in
rain mn
in
humidity
%
barometer
mb
20260508013002 73 0 0.0 0.0 0.00 0.00 0.00 31 1014.2
20260508012502 73 211 0.0 2.0 0.00 0.00 0.00 31 1014.2
20260508012002 73 204 1.0 2.0 0.00 0.00 0.00 31 1014.2
20260508011502 74 177 0.0 2.0 0.00 0.00 0.00 30 1014.2
20260508011002 74 175 0.0 1.0 0.00 0.00 0.00 30 1014.3
20260508010502 74 175 0.0 1.0 0.00 0.00 0.00 30 1014.3
20260508010002 74 152 0.0 2.0 0.00 0.00 0.00 29 1014.4
20260508005502 74 210 1.0 4.0 0.00 0.00 0.00 30 1014.5
20260508005023 74 255 1.0 4.0 0.00 0.00 0.00 30 1014.6
20260508004502 74 306 0.0 3.0 0.00 0.00 0.00 31 1014.5
20260508004023 74 289 0.0 2.0 0.00 0.00 0.00 30 1014.6
20260508003523 74 261 0.0 4.0 0.00 0.00 0.00 31 1014.7
20260508003002 74 261 1.0 6.0 0.00 0.00 0.00 30 1014.7
20260508002523 74 257 1.0 6.0 0.00 0.00 0.00 31 1014.7
20260508002023 74 235 0.0 3.0 0.00 0.00 0.00 31 1014.7
20260508001502 73 200 0.0 2.0 0.00 0.00 0.00 30 1014.8
20260508001002 73 179 1.0 3.0 0.00 0.00 0.00 30 1014.8
20260508000502 73 205 0.0 3.0 0.00 0.00 0.00 29 1014.9
20260508000002 73 247 1.0 4.0 0.00 0.00 0.00 31 1014.9
20260507235523 73 227 1.0 4.0 0.00 0.00 0.00 31 1015.0
20260507235002 72 208 1.0 2.0 0.00 0.00 0.00 31 1015.0
20260507234523 72 280 1.0 4.0 0.00 0.00 0.00 30 1015.0
20260507234002 73 283 1.0 4.0 0.00 0.00 0.00 32 1015.1
20260507233502 73 274 1.0 6.0 0.00 0.00 0.00 33 1015.1
20260507233002 73 278 1.0 6.0 0.00 0.00 0.00 32 1015.2
20260507232502 74 268 1.0 6.0 0.00 0.00 0.00 33 1015.3
20260507232002 74 254 1.0 4.0 0.00 0.00 0.00 33 1015.3
20260507231502 73 269 0.0 4.0 0.00 0.00 0.00 34 1015.3
20260507231002 72 276 1.0 4.0 0.00 0.00 0.00 34 1015.4
20260507230502 73 248 1.0 4.0 0.00 0.00 0.00 35 1015.5
20260507230023 73 225 1.0 4.0 0.00 0.00 0.00 36 1015.5
20260507225502 72 248 1.0 4.0 0.00 0.00 0.00 36 1015.6
20260507225002 72 247 1.0 7.0 0.00 0.00 0.00 37 1015.7
20260507224502 71 237 1.0 7.0 0.00 0.00 0.00 38 1015.7
20260507224002 71 245 1.0 6.0 0.00 0.00 0.00 40 1015.8
20260507223502 71 244 1.0 6.0 0.00 0.00 0.00 41 1015.9
20260507223002 71 228 1.0 4.0 0.00 0.00 0.00 42 1015.9
20260507222502 71 245 1.0 4.0 0.00 0.00 0.00 42 1015.9
20260507222002 72 264 1.0 3.0 0.00 0.00 0.00 41 1016.0
20260507221502 72 266 1.0 3.0 0.00 0.00 0.00 40 1016.0
20260507221002 73 273 1.0 4.0 0.00 0.00 0.00 40 1016.0
20260507220502 73 264 1.0 4.0 0.00 0.00 0.00 39 1016.1
20260507220002 73 250 1.0 4.0 0.00 0.00 0.00 41 1016.1
20260507215502 73 50 0.0 3.0 0.00 0.00 0.00 39 1016.2
20260507215002 73 49 0.0 3.0 0.00 0.00 0.00 36 1016.2
20260507214502 73 338 0.0 4.0 0.00 0.00 0.00 38 1016.2
20260507214002 73 299 1.0 4.0 0.00 0.00 0.00 38 1016.3
20260507213502 73 286 1.0 3.0 0.00 0.00 0.00 39 1016.3
20260507213002 73 313 1.0 2.0 0.00 0.00 0.00 40 1016.4
20260507212502 72 275 1.0 3.0 0.00 0.00 0.00 40 1016.4
20260507212002 72 261 1.0 3.0 0.00 0.00 0.00 40 1016.5
20260507211502 72 170 1.0 2.0 0.00 0.00 0.00 42 1016.5
20260507211002 71 184 1.0 3.0 0.00 0.00 0.00 41 1016.5
20260507210502 71 212 1.0 3.0 0.00 0.00 0.00 43 1016.7
20260507210002 72 205 1.0 3.0 0.00 0.00 0.00 43 1016.7
20260507205502 72 264 1.0 3.0 0.00 0.00 0.00 45 1016.8
20260507205002 71 285 0.0 3.0 0.00 0.00 0.00 45 1016.9
20260507204502 70 184 1.0 2.0 0.00 0.00 0.00 47 1016.9
20260507204002 70 209 1.0 2.0 0.00 0.00 0.00 45 1016.9
20260507203502 70 237 1.0 4.0 0.00 0.00 0.00 45 1017.1
20260507203002 71 273 1.0 4.0 0.00 0.00 0.00 46 1017.1
20260507202502 70 274 1.0 4.0 0.00 0.00 0.00 47 1017.2
20260507202023 70 266 1.0 6.0 0.00 0.00 0.00 47 1017.2
20260507201502 69 297 1.0 7.0 0.00 0.00 0.00 49 1017.3
20260507201002 69 328 1.0 7.0 0.00 0.00 0.00 48 1017.3
20260507200502 69 334 1.0 4.0 0.00 0.00 0.00 49 1017.3
20260507200002 69 317 1.0 4.0 0.00 0.00 0.00 50 1017.4
20260507195502 69 302 1.0 4.0 0.00 0.00 0.00 50 1017.4
20260507195002 68 295 1.0 4.0 0.00 0.00 0.00 50 1017.5
20260507194502 68 278 1.0 4.0 0.00 0.00 0.00 52 1017.6
20260507194002 68 298 1.0 4.0 0.00 0.00 0.00 51 1017.7
20260507193502 67 307 1.0 4.0 0.00 0.00 0.00 51 1017.6
20260507193002 68 286 1.0 4.0 0.00 0.00 0.00 51 1017.8
20260507192502 68 15 1.0 4.0 0.00 0.00 0.00 52 1017.8
20260507192002 67 5 1.0 4.0 0.00 0.00 0.00 52 1017.9
20260507191523 67 298 1.0 5.0 0.00 0.00 0.00 51 1018.0
20260507191002 66 326 1.0 5.0 0.00 0.00 0.00 53 1018.0
20260507190523 66 34 1.0 4.0 0.00 0.00 0.00 54 1018.1
20260507190003 66 19 1.0 4.0 0.00 0.00 0.00 53 1018.1
20260507185502 66 22 1.0 6.0 0.00 0.00 0.00 53 1018.2
20260507185002 65 44 1.0 6.0 0.00 0.00 0.00 55 1018.2
20260507184502 65 21 1.0 4.0 0.00 0.00 0.00 54 1018.3
20260507184002 65 122 0.0 2.0 0.00 0.00 0.00 54 1018.3
20260507183502 64 84 1.0 3.0 0.00 0.00 0.00 56 1018.3
20260507183002 63 71 1.0 4.0 0.00 0.00 0.00 56 1018.4
20260507182502 63 86 1.0 4.0 0.00 0.00 0.00 57 1018.4
20260507182002 63 63 1.0 3.0 0.00 0.00 0.00 57 1018.4
20260507181502 63 356 1.0 3.0 0.00 0.00 0.00 57 1018.5
20260507181002 63 342 1.0 5.0 0.00 0.00 0.00 58 1018.6
20260507180502 62 325 1.0 5.0 0.00 0.00 0.00 59 1018.6
20260507180002 62 331 1.0 4.0 0.00 0.00 0.00 59 1018.7
20260507175502 62 317 1.0 3.0 0.00 0.00 0.00 59 1018.7
20260507175002 62 304 1.0 3.0 0.00 0.00 0.00 60 1018.7
20260507174523 61 318 1.0 3.0 0.00 0.00 0.00 61 1018.7
20260507174002 61 315 1.0 4.0 0.00 0.00 0.00 60 1018.8
20260507173502 61 335 1.0 4.0 0.00 0.00 0.00 61 1018.8
20260507173023 60 327 1.0 4.0 0.00 0.00 0.00 62 1018.8
20260507172502 60 298 1.0 4.0 0.00 0.00 0.00 62 1018.8
20260507172002 60 314 1.0 5.0 0.00 0.00 0.00 63 1018.9
20260507171523 59 343 1.0 5.0 0.00 0.00 0.00 62 1018.8
20260507171023 59 339 1.0 8.0 0.00 0.00 0.00 64 1018.8
20260507170523 59 346 1.0 8.0 0.00 0.00 0.00 64 1018.9
20260507170002 58 346 1.0 3.0 0.00 0.00 0.00 65 1018.9
20260507165502 58 318 1.0 4.0 0.00 0.00 0.00 65 1018.9
20260507165002 58 293 1.0 8.0 0.00 0.00 0.00 66 1018.9
20260507164523 57 292 1.0 8.0 0.00 0.00 0.00 67 1018.9
20260507164002 57 306 1.0 5.0 0.00 0.00 0.00 67 1018.9
20260507163502 56 346 0.0 4.0 0.00 0.00 0.00 68 1018.9
20260507163002 56 320 1.0 5.0 0.00 0.00 0.00 68 1018.9
20260507162502 56 318 2.0 5.0 0.00 0.00 0.00 68 1018.9
20260507162002 56 330 1.0 4.0 0.00 0.00 0.00 69 1018.9
20260507161502 55 350 1.0 5.0 0.00 0.00 0.00 70 1018.9
20260507161002 55 352 1.0 5.0 0.00 0.00 0.00 70 1018.9
20260507160523 54 346 1.0 5.0 0.00 0.00 0.00 71 1019.0
20260507160002 54 347 1.0 5.0 0.00 0.00 0.00 71 1018.9
20260507155502 54 346 1.0 5.0 0.00 0.00 0.00 72 1018.8
20260507155002 54 340 1.0 5.0 0.00 0.00 0.00 72 1018.9
20260507154523 54 330 1.0 4.0 0.00 0.00 0.00 71 1018.8
20260507154002 53 330 2.0 5.0 0.00 0.00 0.00 73 1018.9
20260507153523 53 331 2.0 6.0 0.00 0.00 0.00 72 1018.9
20260507153002 53 332 1.0 6.0 0.00 0.00 0.00 73 1018.9
20260507152502 53 336 2.0 6.0 0.00 0.00 0.00 73 1019.0
20260507152002 53 336 1.0 7.0 0.00 0.00 0.00 73 1019.0
20260507151523 53 333 1.0 7.0 0.00 0.00 0.00 73 1018.9
20260507151002 53 337 2.0 6.0 0.00 0.00 0.00 73 1018.9
20260507150502 53 340 1.0 5.0 0.00 0.00 0.00 74 1018.9
20260507150002 53 337 1.0 6.0 0.00 0.00 0.00 74 1018.9
20260507145502 53 335 0.0 6.0 0.00 0.00 0.00 74 1018.9
20260507145002 52 352 0.0 2.0 0.00 0.00 0.00 74 1018.9
20260507144502 52 15 0.0 3.0 0.00 0.00 0.00 75 1018.9
20260507144002 52 25 0.0 3.0 0.00 0.00 0.00 75 1018.9
20260507143502 52 51 0.0 3.0 0.00 0.00 0.00 75 1018.8
20260507143023 52 5 0.0 3.0 0.00 0.00 0.00 75 1018.8
20260507142502 52 8 1.0 3.0 0.00 0.00 0.00 75 1018.9
20260507142002 52 14 1.0 3.0 0.00 0.00 0.00 76 1018.7
20260507141502 52 10 1.0 3.0 0.00 0.00 0.00 76 1018.7
20260507141002 52 354 0.0 2.0 0.00 0.00 0.00 76 1018.7
20260507140502 52 25 0.0 2.0 0.00 0.00 0.00 76 1018.7
20260507140002 52 353 0.0 3.0 0.00 0.00 0.00 76 1018.6
20260507135502 52 344 0.0 3.0 0.00 0.00 0.00 76 1018.6
20260507135023 52 308 0.0 3.0 0.00 0.00 0.00 77 1018.6
20260507134502 52 0 0.0 0.0 0.00 0.00 0.00 77 1018.5
20260507134002 52 0 0.0 0.0 0.00 0.00 0.00 78 1018.4
20260507133502 52 0 0.0 0.0 0.00 0.00 0.00 78 1018.5
20260507133023 52 41 0.0 2.0 0.00 0.00 0.00 78 1018.5
20260507132502 52 24 0.0 2.0 0.00 0.00 0.00 78 1018.4
20260507132002 52 13 0.0 2.0 0.00 0.00 0.00 78 1018.5
20260507131502 52 17 0.0 2.0 0.00 0.00 0.00 78 1018.5
20260507131002 52 0 0.0 0.0 0.00 0.00 0.00 78 1018.5
20260507130502 52 0 0.0 0.0 0.00 0.00 0.00 78 1018.5
20260507130002 52 0 0.0 0.0 0.00 0.00 0.00 78 1018.5
20260507125502 52 350 0.0 2.0 0.00 0.00 0.00 79 1018.5
20260507125002 52 11 0.0 3.0 0.00 0.00 0.00 78 1018.5
20260507124523 52 9 1.0 3.0 0.00 0.00 0.00 78 1018.6
20260507124002 52 48 0.0 2.0 0.00 0.00 0.00 78 1018.6
20260507123502 52 43 0.0 2.0 0.00 0.00 0.00 78 1018.6
20260507123002 52 9 0.0 2.0 0.00 0.00 0.00 78 1018.6
20260507122502 52 355 0.0 1.0 0.00 0.00 0.00 78 1018.6
20260507122023 53 355 0.0 1.0 0.00 0.00 0.00 78 1018.6
20260507121523 53 355 0.0 1.0 0.00 0.00 0.00 78 1018.6
20260507121002 53 0 0.0 0.0 0.00 0.00 0.00 78 1018.7
20260507120502 53 331 0.0 2.0 0.00 0.00 0.00 78 1018.7
20260507120002 53 326 0.0 2.0 0.00 0.00 0.00 78 1018.8
20260507115502 53 317 0.0 2.0 0.00 0.00 0.00 78 1018.7
20260507114502 53 333 0.0 3.0 0.00 0.00 0.00 78 1018.8
20260507114002 53 347 0.0 2.0 0.00 0.00 0.00 78 1018.8
20260507113502 53 346 0.0 2.0 0.00 0.00 0.00 78 1018.8
20260507113002 53 339 0.0 2.0 0.00 0.00 0.00 77 1018.8
20260507112502 53 341 0.0 1.0 0.00 0.00 0.00 77 1018.9
20260507112023 53 0 0.0 0.0 0.00 0.00 0.00 77 1018.9
20260507111503 53 0 0.0 0.0 0.00 0.00 0.00 77 1018.9
20260507111023 53 0 0.0 0.0 0.00 0.00 0.00 77 1018.9
20260507110502 53 0 0.0 0.0 0.00 0.00 0.00 77 1018.9
20260507110002 53 0 0.0 0.0 0.00 0.00 0.00 77 1018.9
20260507105502 53 0 0.0 0.0 0.00 0.00 0.00 77 1019.0
20260507105002 53 0 0.0 0.0 0.00 0.00 0.00 77 1019.0
20260507104502 53 352 0.0 3.0 0.00 0.00 0.00 76 1019.0
20260507104002 53 350 0.0 3.0 0.00 0.00 0.00 76 1019.0
20260507103502 53 334 1.0 3.0 0.00 0.00 0.00 76 1019.0
20260507103002 53 329 1.0 3.0 0.00 0.00 0.00 76 1019.1
20260507102523 53 332 1.0 6.0 0.00 0.00 0.00 76 1019.1
20260507102002 53 335 1.0 6.0 0.00 0.00 0.00 76 1019.1
20260507101523 53 0 0.0 0.0 0.00 0.00 0.00 76 1019.1
20260507101023 54 338 0.0 1.0 0.00 0.00 0.00 76 1019.1
20260507100502 54 323 1.0 4.0 0.00 0.00 0.00 75 1019.2
20260507100002 54 325 1.0 4.0 0.00 0.00 0.00 75 1019.2
20260507095502 54 336 1.0 3.0 0.00 0.00 0.00 75 1019.2
20260507095002 54 338 0.0 2.0 0.00 0.00 0.00 76 1019.2
20260507094502 54 0 0.0 0.0 0.00 0.00 0.00 76 1019.2
20260507094002 54 0 0.0 0.0 0.00 0.00 0.00 76 1019.3
20260507093502 54 0 0.0 0.0 0.00 0.00 0.00 76 1019.4
20260507093002 54 0 0.0 0.0 0.00 0.00 0.00 76 1019.4
20260507092502 54 0 0.0 0.0 0.00 0.00 0.00 77 1019.5
20260507092002 54 0 0.0 0.0 0.00 0.00 0.00 76 1019.5
20260507091502 54 0 0.0 0.0 0.00 0.00 0.00 77 1019.5
20260507091002 54 333 0.0 2.0 0.00 0.00 0.00 77 1019.6
20260507090502 54 329 0.0 2.0 0.00 0.00 0.00 77 1019.6
20260507090002 54 322 0.0 2.0 0.00 0.00 0.00 77 1019.6
20260507085502 54 319 0.0 3.0 0.00 0.00 0.00 77 1019.6
20260507085002 54 322 0.0 3.0 0.00 0.00 0.00 77 1019.5
20260507084502 54 0 0.0 0.0 0.00 0.00 0.00 77 1019.6
20260507084023 54 0 0.0 0.0 0.00 0.00 0.00 77 1019.5
20260507083523 54 0 0.0 0.0 0.00 0.00 0.00 78 1019.5
20260507083002 54 333 1.0 3.0 0.00 0.00 0.00 78 1019.5
20260507082502 54 333 1.0 5.0 0.00 0.00 0.00 78 1019.5
20260507082023 54 333 1.0 5.0 0.00 0.00 0.00 78 1019.5
20260507081523 54 33 0.0 2.0 0.00 0.00 0.00 78 1019.5
20260507081002 54 333 1.0 4.0 0.00 0.00 0.00 78 1019.4
20260507080523 54 331 1.0 4.0 0.00 0.00 0.00 78 1019.5
20260507080002 54 330 1.0 4.0 0.00 0.00 0.00 78 1019.5
20260507075502 54 331 1.0 5.0 0.00 0.00 0.00 78 1019.5
20260507075002 54 337 1.0 5.0 0.00 0.00 0.00 78 1019.5
20260507074502 54 335 1.0 3.0 0.00 0.00 0.00 79 1019.5
20260507074002 54 320 0.0 2.0 0.00 0.00 0.00 79 1019.5
20260507073523 54 331 0.0 2.0 0.00 0.00 0.00 79 1019.5
20260507073002 54 343 0.0 3.0 0.00 0.00 0.00 79 1019.4
20260507072502 54 340 1.0 3.0 0.00 0.00 0.00 79 1019.4
20260507072002 54 332 0.0 3.0 0.00 0.00 0.00 79 1019.4
20260507071502 54 0 0.0 0.0 0.00 0.00 0.00 79 1019.4
20260507071002 55 0 0.0 0.0 0.00 0.00 0.00 79 1019.4
20260507070502 55 323 0.0 2.0 0.00 0.00 0.00 79 1019.4
20260507070004 55 337 0.0 3.0 0.00 0.00 0.00 79 1019.4
20260507065502 55 338 1.0 3.0 0.00 0.00 0.00 79 1019.4
20260507065023 55 342 1.0 4.0 0.00 0.00 0.00 80 1019.5
20260507064502 55 341 1.0 4.0 0.00 0.00 0.00 80 1019.4
20260507064023 55 336 1.0 4.0 0.00 0.00 0.00 80 1019.4
20260507063502 55 336 1.0 6.0 0.00 0.00 0.00 80 1019.4
20260507063002 55 337 1.0 6.0 0.00 0.00 0.00 80 1019.4
20260507062502 55 336 1.0 5.0 0.00 0.00 0.00 80 1019.5
20260507062002 55 335 1.0 5.0 0.00 0.00 0.00 79 1019.5
20260507061502 55 336 1.0 5.0 0.00 0.00 0.00 79 1019.5
20260507061023 55 338 1.0 6.0 0.00 0.00 0.00 79 1019.5
20260507060502 55 338 1.0 6.0 0.00 0.00 0.00 79 1019.5
20260507060002 56 329 1.0 6.0 0.00 0.00 0.00 79 1019.4
20260507055523 56 333 1.0 4.0 0.00 0.00 0.00 79 1019.4
20260507055002 56 337 1.0 4.0 0.00 0.00 0.00 78 1019.4
20260507054502 56 336 1.0 4.0 0.00 0.00 0.00 78 1019.4
20260507054002 56 339 1.0 4.0 0.00 0.00 0.00 78 1019.4
20260507053502 56 341 1.0 4.0 0.00 0.00 0.00 78 1019.4
20260507053003 56 341 1.0 4.0 0.00 0.00 0.00 78 1019.4
20260507052502 56 339 1.0 4.0 0.00 0.00 0.00 78 1019.4
20260507052003 56 335 2.0 6.0 0.00 0.00 0.00 77 1019.4
20260507051523 56 331 2.0 6.0 0.00 0.00 0.00 77 1019.3
20260507051002 57 332 2.0 5.0 0.00 0.00 0.00 77 1019.3
20260507050502 57 342 1.0 5.0 0.00 0.00 0.00 77 1019.4
20260507050002 57 343 1.0 5.0 0.00 0.00 0.00 77 1019.3
20260507045502 57 335 1.0 5.0 0.00 0.00 0.00 76 1019.4
20260507045023 57 328 1.0 4.0 0.00 0.00 0.00 76 1019.3
20260507044502 57 335 1.0 5.0 0.00 0.00 0.00 76 1019.4
20260507044024 58 337 1.0 5.0 0.00 0.00 0.00 76 1019.3
20260507043523 58 340 1.0 6.0 0.00 0.00 0.00 76 1019.3
20260507043002 58 338 1.0 6.0 0.00 0.00 0.00 76 1019.2
20260507042502 58 332 1.0 4.0 0.00 0.00 0.00 76 1019.2
20260507042002 58 333 1.0 4.0 0.00 0.00 0.00 76 1019.1
20260507041502 58 338 1.0 4.0 0.00 0.00 0.00 76 1019.1
20260507041002 59 334 1.0 4.0 0.00 0.00 0.00 76 1019.0
20260507040502 59 327 2.0 5.0 0.00 0.00 0.00 76 1018.9
20260507040002 59 325 1.0 5.0 0.00 0.00 0.00 76 1018.9
20260507035523 59 308 1.0 3.0 0.00 0.00 0.00 76 1018.8
20260507035002 59 326 1.0 8.0 0.00 0.00 0.00 77 1018.7
20260507034502 59 336 1.0 8.0 0.00 0.00 0.00 76 1018.6
20260507034003 59 333 1.0 5.0 0.00 0.00 0.00 76 1018.6
20260507033502 59 326 1.0 4.0 0.00 0.00 0.00 76 1018.5
20260507033002 59 323 1.0 4.0 0.00 0.00 0.00 76 1018.5
20260507032502 59 323 1.0 4.0 0.00 0.00 0.00 76 1018.4
20260507032002 60 322 1.0 4.0 0.00 0.00 0.00 75 1018.4
20260507031502 60 312 1.0 4.0 0.00 0.00 0.00 75 1018.3
20260507031002 60 317 1.0 5.0 0.00 0.00 0.00 74 1018.2
20260507030503 60 321 1.0 6.0 0.00 0.00 0.00 74 1018.2
20260507030002 61 310 1.0 6.0 0.00 0.00 0.00 73 1018.2
20260507025502 61 308 1.0 3.0 0.00 0.00 0.00 73 1018.1
20260507025002 62 320 1.0 5.0 0.00 0.00 0.00 72 1018.1
20260507024504 62 334 1.0 5.0 0.00 0.00 0.00 72 1018.0
20260507024002 62 337 1.0 4.0 0.00 0.00 0.00 71 1018.0
20260507023502 62 339 1.0 4.0 0.00 0.00 0.00 71 1017.8
20260507023002 63 342 1.0 4.0 0.00 0.00 0.00 71 1017.9
20260507022502 63 338 1.0 5.0 0.00 0.00 0.00 71 1017.9
20260507022023 63 336 1.0 5.0 0.00 0.00 0.00 70 1017.8
20260507021502 63 325 1.0 3.0 0.00 0.00 0.00 70 1018.0
20260507021023 63 315 1.0 5.0 0.00 0.00 0.00 70 1018.0
20260507020523 63 314 1.0 5.0 0.00 0.00 0.00 70 1018.0
20260507020002 64 334 1.0 3.0 0.00 0.00 0.00 69 1018.0
20260507015502 64 340 1.0 8.0 0.00 0.00 0.00 69 1017.9
20260507015003 64 340 1.0 8.0 0.00 0.00 0.00 69 1018.0
20260507014502 64 336 1.0 5.0 0.00 0.00 0.00 68 1018.0
20260507014023 65 332 1.0 5.0 0.00 0.00 0.00 67 1018.0
20260507013523 66 333 1.0 4.0 0.00 0.00 0.00 67 1018.0